Veribest, TX

3:21 AM CDT on August 26, 2016 (GMT -0500)
San Angelo Regional-Mathis

Weather History for KSJT - November, 2012

Change the Weather History Date:

Friday, November 30, 2012

  Actual Average Record
Temperature  
Mean Temperature 66 °F 50 °F  
Max Temperature 78 °F 63 °F 81 °F (1950)
Min Temperature 53 °F 37 °F 13 °F (1979)
Degree Days  
Heating Degree Days 0 15  
Month to date heating degree days 188 309  
Since 1 July heating degree days 305 400  
Cooling Degree Days 1 0  
Month to date cooling degree days 41 18  
Year to date cooling degree days 3226 2502  
Growing Degree Days 16 (Base 50)    
Moisture  
Dew Point 53 °F    
Average Humidity 66    
Maximum Humidity 93    
Minimum Humidity 39    
Precipitation  
Precipitation 0.00 in 0.02 in 1.21 in (1939)
Month to date precipitation T 1.14  
Year to date precipitation 21.78 20.40  
Snow  
Snow 0.00 in 0.00 in 3.00 in (1968)
Month to date snowfall 0.0 0.3  
Since 1 July snowfall T 0.3  
Snow Depth 0.00 in    
Sea Level Pressure  
Sea Level Pressure 30.07 in    
Wind  
Wind Speed 11 mph (SSW)    
Max Wind Speed 18 mph    
Max Gust Speed 22 mph    
Visibility 9 miles    
Events      
T = Trace of Precipitation, MM = Missing Value Source: NWS Daily Summary

Daily Weather History Graph

Daily Weather History Graph

Search for Another Location

Airport or City:

Trip Planner

Search our weather history database for the weather conditions in past years. The results will help you decide how hot, cold, wet, or windy it might be!

Date:

Astronomy

Nov. 30, 2012 Rise Set
Actual Time 7:22 AM CST 5:38 PM CST
Civil Twilight 6:56 AM CST 6:05 PM CST
Nautical Twilight 6:26 AM CST 6:35 PM CST
Astronomical Twilight 5:57 AM CST 7:04 PM CST
Moon 7:34 PM CST (11/30) 8:56 AM CST (11/30)
Length of Visible Light 11h 08m
Length of Day
10h 16m
Waning Gibbous, 96% of the Moon is Illuminated
Nov 30
Waning Gibbous
Dec 6
Last Quarter
Dec 13
New
Dec 19
First Quarter
Dec 28
Full

Hourly Weather History & Observations

Time (CST) Temp. Dew Point Humidity Pressure Visibility Wind Dir Wind Speed Gust Speed Precip Events Conditions
12:51 AM 54.0 °F 51.1 °F 90% 30.10 in 9.0 mi SSW 8.1 mph - N/A   Clear
1:25 AM 53.6 °F 51.8 °F 94% 30.12 in 9.0 mi SSW 9.2 mph - N/A   Scattered Clouds
1:34 AM 55.4 °F 51.8 °F 88% 30.12 in 10.0 mi SSW 11.5 mph - N/A   Mostly Cloudy
1:51 AM 55.9 °F 53.1 °F 90% 30.09 in 9.0 mi SSW 10.4 mph - N/A   Overcast
2:51 AM 57.0 °F 55.0 °F 93% 30.09 in 9.0 mi SSW 15.0 mph - N/A   Overcast
3:51 AM 57.9 °F 55.0 °F 90% 30.08 in 10.0 mi SSW 9.2 mph 39.1 mph N/A   Overcast
4:51 AM 57.9 °F 55.0 °F 90% 30.08 in 9.0 mi SSW 15.0 mph 20.7 mph N/A   Overcast
5:51 AM 59.0 °F 55.0 °F 87% 30.09 in 6.0 mi SSW 10.4 mph - N/A   Overcast
6:13 AM 59.0 °F 55.4 °F 88% 30.11 in 7.0 mi SSW 12.7 mph - N/A   Overcast
6:51 AM 60.1 °F 55.0 °F 83% 30.09 in 8.0 mi SSW 13.8 mph 21.9 mph N/A   Overcast
7:51 AM 60.1 °F 55.0 °F 83% 30.11 in 7.0 mi SSW 12.7 mph - N/A   Overcast
8:51 AM 61.0 °F 55.0 °F 81% 30.12 in 7.0 mi SSW 12.7 mph - N/A   Overcast
9:19 AM 62.6 °F 55.4 °F 77% 30.15 in 8.0 mi SSW 15.0 mph - N/A   Overcast
9:51 AM 63.0 °F 55.0 °F 75% 30.13 in 8.0 mi SSW 16.1 mph - N/A   Mostly Cloudy
10:02 AM 64.4 °F 55.4 °F 73% 30.16 in 8.0 mi SSW 13.8 mph - N/A   Scattered Clouds
10:51 AM 66.0 °F 55.0 °F 68% 30.12 in 7.0 mi SW 15.0 mph - N/A   Clear
11:51 AM 70.0 °F 55.0 °F 59% 30.09 in 8.0 mi SSW 12.7 mph - N/A   Clear
1:51 PM 75.9 °F 53.1 °F 45% 30.01 in 10.0 mi SSW 12.7 mph 20.7 mph N/A   Clear
2:51 PM 78.1 °F 52.0 °F 40% 29.99 in 10.0 mi SSW 11.5 mph - N/A   Clear
4:51 PM 75.9 °F 50.0 °F 40% 29.97 in 10.0 mi SSW 10.4 mph - N/A   Clear
5:51 PM 70.0 °F 50.0 °F 49% 29.98 in 10.0 mi South 6.9 mph - N/A   Clear
6:51 PM 66.0 °F 51.1 °F 59% 30.00 in 10.0 mi SSE 4.6 mph - N/A   Clear
7:51 PM 57.0 °F 48.9 °F 74% 30.01 in 10.0 mi SSW 6.9 mph - N/A   Clear
8:51 PM 55.9 °F 48.0 °F 75% 30.01 in 10.0 mi SSW 8.1 mph - N/A   Clear
9:51 PM 57.9 °F 50.0 °F 75% 30.02 in 10.0 mi South 6.9 mph - N/A   Clear
10:51 PM 60.1 °F 52.0 °F 75% 30.02 in 10.0 mi South 13.8 mph - N/A   Clear
11:51 PM 59.0 °F 55.0 °F 87% 30.01 in 10.0 mi SSW 6.9 mph - N/A   Clear